Tracking 20942 objects as of 13-Jul-2020
HD Live streaming from Space Station
objects crossing your sky now

ARIANE 2 DEB

Track ARIANE 2 DEB now!


NORAD ID: 33558
Int'l Code: 1989-006BA
Perigee: 1,199.2 km
Apogee: 35,710.3 km
Inclination: 10.4 °
Period: 648.8 minutes
Semi major axis: 24825 km
RCS: 0.1528 m2 (medium)
Launch date: January 27, 1989
Source: France (FR)
Launch site: FRENCH GUIANA (FRGUI)

Note: This is SATELLITE DEBRIS
aabbcc
Your satellite tracking list
Your tracking list is empty




NASA's NSSDC Master Catalog

Two Line Element Set (TLE):
1 33558U 89006BA  20193.92494437 -.00000153 +00000-0 +00000-0 0  9994
2 33558 010.3573 314.2177 6950673 349.9236 001.2276 02.21946832126961
Source of the keplerian elements: AFSPC